ATLAS 5 CENTAUR DEB, 44678

Orbit data source: Space-Track

ATLAS 5 CENTAUR DEB, 44678 is space debris in HEO originally from a launch on Wed, 17 Oct 2018 UTC launched from the Air Force Eastern Test Range (AFETR). Debris objects in space refer to the collection of defunct objects orbiting the Earth. Examples of debris include non-operational satellites, rocket bodies, and fragments generated from explosions, collisions, or faulty payload assembly.

Loading next visibility...
Identifier
44678, 2018-079AQ
Orbit
HEO
Country
Flag of USUS
Related business
Flag of USUnited Launch Alliance/Lockheed Martin (US)
Manufacturer
ULA Decatur
Mission
Spacecraft
Bus & Motor
Unknown
Mass
Unknown
Launch date (UTC)
2018-10-17 (7 years ago)
Launch vehicle
Unknown
Launch site
Air Force Eastern Test Range (AFETR)
Object type
Payload
Rocket body
Debris
Shape & HBR
Unknown
Radar Cross Section
RCS unknown

Expand to show TLE details & history
Last TLE update: 22 hours ago

TLE from 22 hours ago
0 ATLAS 5 CENTAUR DEB
1 44678U 18079AQ  25259.10523190 -.00000186  00000-0  00000-0 0  9994
2 44678  13.0729  58.1751 4623920 267.9290  40.4897  1.82228475 46079
Epoch: 2025-09-16T02:31Z
TLE epoch observation values (Epoch: 2025-09-16T02:31:32.036Z)
Latitude
-0.00006°
Longitude
25.05378°
Altitude
16,237.714 km
Speed
4.601 km/s
True Right ascension
03h 52m 57s
True Declination
0° 00' 00"
Sunlit
Object was in daylight at epoch
Visualization orbit readout
Latitude
Unknown
Longitude
Unknown
Altitude
Unknown
Speed
Unknown
Apparent Right ascension
Unknown
Apparent Declination
Unknown
Sunlit
N/A
Visualization observer readout
Local Sidereal Time
17:39:44
Azimuth
Unknown
Elevation
Unknown
Doppler factor
Unknown
Orbital elements
Apogee altitude
35,030.095 km
Perigee altitude
8,844.455 km
Semi-major axis
28,315.412 km
Eccentricity
0.46239
Inclination
13.0729°
RAAN
58.1751°
Arg. of periapsis
267.929°
True anomaly
92.14562°
Mean anomaly
40.4897°
Eccentric anomaly
64.37756°
Mean motion
0.45552 °/min
Orbital period
790.3 mins
BSTAR
0
Loading maneuver chart data...
Computing Atmospheric mass density...

Documentation

Showing up to 5 results
|